YAMAL 402

导读

YAMAL 402(亚马尔-402)是由独立国家联合体(CIS)成员国俄罗斯发射的通信卫星,由俄罗斯天然气工业股份公司下属航天系统公司定制。该卫星于莫斯科时间2012年12月8日由“质子-M”运载火箭发射,因火箭加速器故障未能进入预定轨道,原计划在东经55度同步轨道运行15年,为俄、西欧、中东、北非等区域提供通信转播服务。

基本信息
目录编号:
39022
目录名称:
YAMAL 402
国际标识:
2012-070A
轨道中心:
EARTH
卫星名称:
YAMAL 402
卫星全名:
--
卫星状态:
在轨 (已飞行4937 天)
发射日期:
2012-12-08 UTC
国别 :
俄罗斯(独联体) (CIS)
星等 :
--
轨道信息
数据来源 国际轨道数据 AOE轨道数据
星历时间 2026-06-15T05:35:39+0800
6小时前
查看轨道信息
2026-06-14T01:00:00+0800
1天前
查看轨道信息
半长轴 42165.121km 42164.868km
偏心率 0.000361 0.0003514
轨道倾角 1.259° 1.256°
近地点辐角 359.358° 352.369°
升交点赤经 84.189° 84.177°
平近点角 198.456° 135.376°
近地点 35771.762km 35771.914km
远地点 35802.206km 35801.548km
周期 1436.117分钟 1436.104分钟
每日圈数 1.002704 1.002713
详细信息
使用方式:
暂无
2D轨道图
3D轨道图
轨道高度分析图
轨道倾角分析图
轨道综合分析图
查看轨道综合分析图